Miscellaneous Local Product
Issued by NWS Hastings, NE

Home | Current Version | Previous Version | Graphics & Text | Print | Product List | Glossary On
Versions: 1 2 3 4 5 6 7 8 9 10 11 12 13 14 15 16 17 18 19 20 21 22 23 24 25 26 27 28 29 30 31 32 33 34 35 36 37 38 39 40 41 42 43 44 45 46 47 48 49 50
979
AXUS43 KGID 210102
MISGRI

GID CWA HOURLY WEATHER ROUNDUP
NATIONAL WEATHER SERVICE HASTINGS NE
800 PM CDT THU JUL 20 2017

NOTE: "FAIR" INDICATES FEW OR NO CLOUDS BELOW 12,000 FEET WITH NO
SIGNIFICANT WEATHER AND/OR OBSTRUCTIONS TO VISIBILITY.

...SOUTH CENTRAL NEBRASKA...

CITY           SKY/WX    TMP DP  RH WIND       PRES   REMARKS
GRAND ISLAND   CLEAR     88  79  74 E8        29.90F HX 103
HASTINGS       CLEAR     90  74  59 E8        29.90F HX  99
KEARNEY        SUNNY     87  77  72 E10       29.90F HX  99
ORD            SUNNY     89  68  49 SE10      29.89F HX  93
YORK           CLEAR     88  81  79 E9        29.90F HX 105
AURORA         CLEAR     87  80  80 E7        29.90F HX 102
LEXINGTON      SUNNY     86  76  71 E9        29.90F HX  96
HOLDREGE       SUNNY     86  77  73 E9        29.90S HX  97
HEBRON         CLEAR     91  75  59 SE6       29.88S HX 101

...NEBRASKA PANHANDLE...

CITY           SKY/WX    TMP DP  RH WIND       PRES   REMARKS
CHADRON        SUNNY     90  59  35 S12       29.91F
ALLIANCE       SUNNY     85  59  41 SE10      29.99R
SCOTTSBLUFF    MOSUNNY   84  62  47 E8        29.97F
SIDNEY         SUNNY     89  57  33 E10       30.03F

...WESTERN AND NORTH CENTRAL NEBRASKA...

CITY           SKY/WX    TMP DP  RH WIND       PRES   REMARKS
VALENTINE      SUNNY     92  57  30 S18       29.90F HX  90
AINSWORTH      SUNNY     87  66  50 SE13      29.92F
ONEILL         SUNNY     85  76  74 SE12      29.92F HX  94
BROKEN BOW     SUNNY     87  72  60 E12       29.92F HX  93
IMPERIAL       SUNNY     96  60  30 W6        29.90S HX  96
NORTH PLATTE   SUNNY     88  70  55 SE10      29.90F HX  93
MCCOOK         SUNNY     98  58  26 S9        29.86F HX  97

...EASTERN NEBRASKA...

CITY           SKY/WX    TMP DP  RH WIND       PRES   REMARKS
NORFOLK        CLEAR     84  69  60 SE9       29.90F
SO SIOUX CITY  CLEAR     81  70  69 SE6       29.91S
TEKAMAH        PTCLDY    85  74  69 E7        29.91R HX  92
COLUMBUS       CLEAR     90  75  61 E12       29.89F HX 100
ALBION         CLEAR     87  74  65 E8        29.91F HX  96
OMAHA EPPLEY   MOCLDY    91  77  63 E8        29.90S HX 104
OFFUTT AFB     PTCLDY    90  78  69 E6        29.90F HX 104
MILLARD        CLEAR     92  79  65 E3        29.90S HX 110
LINCOLN        CLOUDY    92  75  57 SE7       29.89F HX 103
NEBRASKA CITY  MOCLDY    90  83  80 S7        29.90S HX 112
BEATRICE       CLEAR     91  76  61 SE8       29.89F HX 101
FALLS CITY     CLOUDY    88  78  72 SE7       29.90F HX 101

...NORTHERN KANSAS...

CITY           SKY/WX    TMP DP  RH WIND       PRES   REMARKS
GOODLAND       SUNNY     92  64  39 S8        29.94S HX  93
HILL CITY      SUNNY     98  58  26 S13       29.87F HX  97
NORTON         CLEAR     95  54  24 SE8       29.87  HX  93
PHILLIPSBURG   CLEAR     95  57  28 SE7       29.86S HX  94
SMITH CENTER   CLEAR     90  61  37 SE6       29.87S
HAYS           CLEAR     98  58  26 S12       29.88S HX  97
RUSSELL        CLEAR     97  59  28 S15       29.87S HX  96
CONCORDIA      CLEAR     93  68  43 S9        29.88S HX  97
SALINA         CLEAR    100  62  28 S14       29.88S HX 101
TOPEKA         CLEAR     94  72  48 S9        29.92S HX 102



USA.gov is the U.S. government's official web portal to all federal, state and local government web resources and services.